Time,TemperatureF,DewpointF,PressureIn,WindDirection,WindDirectionDegrees,WindSpeedMPH,WindSpeedGustMPH,Humidity,HourlyPrecipIn,Conditions,Clouds,dailyrainin,SolarRadiationWatts/m^2,SoftwareType,DateUTC
2013-02-12 00:00:00,29.0,20.0,-100.00,WNW,292,9.0,-999.0,68,-99.99,,,-99.99,0.000000,,2013-02-12 05:00:00,
2013-02-12 00:42:00,29.0,20.0,-100.00,WNW,292,9.0,-999.0,68,-99.99,,,-99.99,0.000000,,2013-02-12 05:42:00,
2013-02-12 00:52:00,29.0,20.0,-100.00,WNW,292,9.0,-999.0,68,-99.99,,,-99.99,0.000000,,2013-02-12 05:52:00,
2013-02-12 03:00:00,28.0,21.0,-100.00,West,270,7.0,-999.0,73,-99.99,,,-99.99,0.000000,,2013-02-12 08:00:00,
2013-02-12 03:42:00,28.0,21.0,-100.00,West,270,7.0,-999.0,73,-99.99,,,-99.99,0.000000,,2013-02-12 08:42:00,
2013-02-12 03:52:00,28.0,21.0,-100.00,West,270,7.0,-999.0,73,-99.99,,,-99.99,0.000000,,2013-02-12 08:52:00,
2013-02-12 06:00:00,27.0,20.0,-100.00,WNW,292,7.0,-999.0,75,-99.99,,,-99.99,0.000000,,2013-02-12 11:00:00,
2013-02-12 06:42:00,27.0,20.0,-100.00,WNW,292,7.0,-999.0,75,-99.99,,,-99.99,0.000000,,2013-02-12 11:42:00,
2013-02-12 06:53:00,27.0,20.0,-100.00,WNW,292,7.0,-999.0,75,-99.99,,,-99.99,0.000000,,2013-02-12 11:53:00,
2013-02-12 09:00:00,26.0,20.0,-100.00,WNW,292,4.0,-999.0,77,-99.99,,,-99.99,16.240000,,2013-02-12 14:00:00,
2013-02-12 09:42:00,26.0,20.0,-100.00,WNW,292,4.0,-999.0,77,-99.99,,,-99.99,16.240000,,2013-02-12 14:42:00,
2013-02-12 09:52:00,26.0,20.0,-100.00,WNW,292,4.0,-999.0,77,-99.99,,,-99.99,16.240000,,2013-02-12 14:52:00,
2013-02-12 12:00:00,27.0,20.0,-100.00,WSW,247,6.0,-999.0,72,-99.99,,,-99.99,149.639999,,2013-02-12 17:00:00,
2013-02-12 12:42:00,27.0,20.0,-100.00,WSW,247,6.0,-999.0,72,-99.99,,,-99.99,149.639999,,2013-02-12 17:42:00,
2013-02-12 12:52:00,27.0,20.0,-100.00,WSW,247,6.0,-999.0,72,-99.99,,,-99.99,149.639999,,2013-02-12 17:52:00,
2013-02-12 18:00:00,27.0,20.0,-100.00,West,270,5.0,-999.0,75,-99.99,,,-99.99,18.559999,,2013-02-12 23:00:00,
2013-02-12 18:42:00,27.0,20.0,-100.00,West,270,5.0,-999.0,75,-99.99,,,-99.99,18.559999,,2013-02-12 23:42:00,
2013-02-12 18:52:00,27.0,20.0,-100.00,West,270,5.0,-999.0,75,-99.99,,,-99.99,18.559999,,2013-02-12 23:52:00,
2013-02-12 21:00:00,27.0,20.0,-100.00,WSW,247,3.0,-999.0,76,-99.99,,,-99.99,0.000000,,2013-02-13 02:00:00,
2013-02-12 21:42:00,27.0,20.0,-100.00,WSW,247,3.0,-999.0,76,-99.99,,,-99.99,0.000000,,2013-02-13 02:42:00,
2013-02-12 21:52:00,27.0,20.0,-100.00,WSW,247,3.0,-999.0,76,-99.99,,,-99.99,0.000000,,2013-02-13 02:52:00,